TimeEDT,TemperatureF,Dew PointF,Humidity,Sea Level PressureIn,VisibilityMPH,Wind Direction,Wind SpeedMPH,Gust SpeedMPH,PrecipitationIn,Events,Conditions,WindDirDegrees,DateUTC
12:15 AM,77.0,-9999,N/A,30.02,10.0,Calm,Calm,-,N/A,,Clear,0,2013-08-02 04:15:00
12:35 AM,77.0,-9999,N/A,30.02,10.0,East,3.5,-,N/A,,Clear,90,2013-08-02 04:35:00
12:55 AM,75.2,-9999,N/A,30.03,10.0,ENE,3.5,-,N/A,,Clear,70,2013-08-02 04:55:00
1:15 AM,77.0,-9999,N/A,30.02,10.0,Calm,Calm,-,N/A,,Clear,0,2013-08-02 05:15:00
1:35 AM,77.0,-9999,N/A,30.01,10.0,Calm,Calm,-,N/A,,Clear,0,2013-08-02 05:35:00
1:55 AM,75.2,-9999,N/A,30.01,10.0,Calm,Calm,-,N/A,,Clear,0,2013-08-02 05:55:00
2:15 AM,75.2,-9999,N/A,30.00,10.0,East,3.5,-,N/A,,Clear,100,2013-08-02 06:15:00
2:35 AM,75.2,-9999,N/A,30.00,10.0,Calm,Calm,-,N/A,,Clear,0,2013-08-02 06:35:00
2:55 AM,75.2,-9999,N/A,30.00,10.0,Calm,Calm,-,N/A,,Clear,0,2013-08-02 06:55:00
3:15 AM,75.2,-9999,N/A,30.00,10.0,East,3.5,-,N/A,,Clear,90,2013-08-02 07:15:00
3:35 AM,75.2,-9999,N/A,30.00,10.0,ENE,3.5,-,N/A,,Clear,70,2013-08-02 07:35:00
3:55 AM,75.2,-9999,N/A,29.99,10.0,ENE,4.6,-,N/A,,Clear,70,2013-08-02 07:55:00
4:15 AM,75.2,-9999,N/A,29.99,10.0,Calm,Calm,-,N/A,,Clear,0,2013-08-02 08:15:00
4:35 AM,77.0,-9999,N/A,29.98,10.0,Calm,Calm,-,N/A,,Clear,0,2013-08-02 08:35:00
4:55 AM,75.2,-9999,N/A,29.98,10.0,Calm,Calm,-,N/A,,Clear,0,2013-08-02 08:55:00
5:15 AM,75.2,-9999,N/A,29.98,10.0,Calm,Calm,-,N/A,,Clear,0,2013-08-02 09:15:00
5:35 AM,75.2,-9999,N/A,29.99,10.0,Calm,Calm,-,N/A,,Clear,0,2013-08-02 09:35:00
5:55 AM,75.2,-9999,N/A,29.99,10.0,Calm,Calm,-,N/A,,Clear,0,2013-08-02 09:55:00
6:15 AM,75.2,-9999,N/A,29.99,10.0,Calm,Calm,-,N/A,,Clear,0,2013-08-02 10:15:00
6:35 AM,75.2,-9999,N/A,29.99,10.0,Calm,Calm,-,N/A,,Clear,0,2013-08-02 10:35:00
6:55 AM,75.2,-9999,N/A,30.00,10.0,Calm,Calm,-,N/A,,Clear,0,2013-08-02 10:55:00
7:15 AM,75.2,-9999,N/A,30.00,10.0,Calm,Calm,-,N/A,,Clear,0,2013-08-02 11:15:00
7:35 AM,77.0,-9999,N/A,30.01,10.0,Calm,Calm,-,N/A,,Clear,0,2013-08-02 11:35:00
7:55 AM,78.8,-9999,N/A,30.01,10.0,Calm,Calm,-,N/A,,Clear,0,2013-08-02 11:55:00
8:35 AM,-9999,-9999,N/A,30.02,10.0,SSE,4.6,-,N/A,,Clear,160,2013-08-02 12:35:00
8:55 AM,-9999,-9999,N/A,30.02,10.0,SSE,4.6,-,N/A,,Clear,150,2013-08-02 12:55:00
9:15 AM,-9999,-9999,N/A,30.03,10.0,South,4.6,-,N/A,,Clear,180,2013-08-02 13:15:00
9:35 AM,-9999,-9999,N/A,30.03,10.0,SSE,5.8,-,N/A,,Clear,160,2013-08-02 13:35:00
9:55 AM,-9999,-9999,N/A,30.04,10.0,SSE,3.5,-,N/A,,Clear,160,2013-08-02 13:55:00
10:15 AM,-9999,-9999,N/A,30.04,10.0,Calm,Calm,-,N/A,,Clear,0,2013-08-02 14:15:00
10:35 AM,-9999,-9999,N/A,30.05,10.0,Calm,Calm,-,N/A,,Clear,0,2013-08-02 14:35:00
10:55 AM,-9999,-9999,N/A,30.06,10.0,WSW,5.8,-,N/A,,Scattered Clouds,240,2013-08-02 14:55:00
11:15 AM,-9999,-9999,N/A,30.06,10.0,NW,3.5,-,N/A,,Scattered Clouds,320,2013-08-02 15:15:00
11:35 AM,-9999,-9999,N/A,30.06,10.0,West,4.6,-,N/A,,Mostly Cloudy,280,2013-08-02 15:35:00
11:55 AM,-9999,-9999,N/A,30.06,10.0,NNW,3.5,-,N/A,,Mostly Cloudy,340,2013-08-02 15:55:00
12:15 PM,89.6,73.4,59,30.07,10.0,West,6.9,-,N/A,,Scattered Clouds,280,2013-08-02 16:15:00
12:35 PM,89.6,71.6,55,30.06,10.0,NW,4.6,-,N/A,,Scattered Clouds,310,2013-08-02 16:35:00
12:55 PM,89.6,69.8,52,30.06,10.0,Calm,Calm,-,N/A,,Scattered Clouds,0,2013-08-02 16:55:00
1:15 PM,89.6,71.6,55,30.05,10.0,North,5.8,-,N/A,,Mostly Cloudy,360,2013-08-02 17:15:00
1:35 PM,-9999,-9999,N/A,30.04,10.0,Calm,Calm,-,N/A,,Scattered Clouds,0,2013-08-02 17:35:00
1:55 PM,93.2,71.6,49,30.04,10.0,NW,8.1,-,N/A,,Scattered Clouds,310,2013-08-02 17:55:00
2:15 PM,-9999,-9999,N/A,30.03,10.0,NNW,4.6,-,N/A,,Scattered Clouds,330,2013-08-02 18:15:00
2:35 PM,93.2,69.8,46,30.03,10.0,NNW,5.8,-,N/A,,Scattered Clouds,340,2013-08-02 18:35:00
2:55 PM,-9999,-9999,N/A,30.02,10.0,Calm,Calm,-,N/A,,Scattered Clouds,0,2013-08-02 18:55:00
3:15 PM,-9999,-9999,N/A,30.02,10.0,NW,6.9,-,N/A,,Scattered Clouds,310,2013-08-02 19:15:00
3:35 PM,91.4,73.4,55,30.01,10.0,West,13.8,-,N/A,,Mostly Cloudy,260,2013-08-02 19:35:00
3:55 PM,91.4,71.6,52,30.00,10.0,WNW,11.5,17.3,N/A,,Scattered Clouds,290,2013-08-02 19:55:00
4:15 PM,93.2,71.6,49,29.99,10.0,WNW,10.4,-,N/A,,Clear,290,2013-08-02 20:15:00
4:35 PM,93.2,73.4,52,29.99,10.0,West,11.5,-,N/A,,Clear,260,2013-08-02 20:35:00
4:55 PM,-9999,-9999,N/A,29.99,10.0,West,10.4,-,N/A,,Scattered Clouds,280,2013-08-02 20:55:00
5:15 PM,93.2,71.6,49,30.00,10.0,West,8.1,11.5,N/A,,Scattered Clouds,260,2013-08-02 21:15:00
5:55 PM,80.6,77.0,89,30.04,1.0,NE,8.1,19.6,0.47,Rain,Heavy Rain,40,2013-08-02 21:55:00
6:15 PM,77.0,-9999,N/A,30.02,2.5,SE,6.9,-,0.27,Rain,Light Rain,130,2013-08-02 22:15:00
6:35 PM,77.0,-9999,N/A,30.00,10.0,SSW,5.8,-,0.27,,Scattered Clouds,210,2013-08-02 22:35:00
6:55 PM,77.0,-9999,N/A,30.02,10.0,SSW,5.8,-,0.27,,Scattered Clouds,210,2013-08-02 22:55:00
7:15 PM,-9999,-9999,N/A,30.02,10.0,SW,4.6,-,N/A,,Scattered Clouds,230,2013-08-02 23:15:00
7:35 PM,-9999,-9999,N/A,30.02,10.0,SE,3.5,-,N/A,,Clear,140,2013-08-02 23:35:00
7:55 PM,-9999,-9999,N/A,30.02,10.0,Calm,Calm,-,N/A,,Scattered Clouds,0,2013-08-02 23:55:00
8:15 PM,-9999,-9999,N/A,30.04,10.0,SW,3.5,-,N/A,,Scattered Clouds,220,2013-08-03 00:15:00
8:35 PM,-9999,-9999,N/A,30.05,10.0,WSW,8.1,-,N/A,,Scattered Clouds,250,2013-08-03 00:35:00
8:55 PM,-9999,-9999,N/A,30.06,10.0,South,3.5,-,N/A,,Scattered Clouds,180,2013-08-03 00:55:00
9:15 PM,78.8,78.8,100,30.06,10.0,South,3.5,-,N/A,,Mostly Cloudy,180,2013-08-03 01:15:00
9:35 PM,78.8,73.4,83,30.08,10.0,Calm,Calm,-,N/A,,Scattered Clouds,0,2013-08-03 01:35:00
9:55 PM,78.8,75.2,89,30.09,10.0,East,3.5,-,N/A,,Scattered Clouds,80,2013-08-03 01:55:00
10:15 PM,78.8,77.0,94,30.09,10.0,Calm,Calm,-,N/A,,Scattered Clouds,0,2013-08-03 02:15:00
10:35 PM,78.8,78.8,100,30.08,10.0,Calm,Calm,-,N/A,,Scattered Clouds,0,2013-08-03 02:35:00
10:55 PM,78.8,78.8,100,30.07,10.0,SE,4.6,-,N/A,,Scattered Clouds,140,2013-08-03 02:55:00
11:15 PM,-9999,-9999,N/A,30.07,10.0,South,3.5,-,N/A,,Scattered Clouds,190,2013-08-03 03:15:00
11:35 PM,78.8,78.8,100,30.07,10.0,SW,4.6,-,N/A,,Clear,230,2013-08-03 03:35:00
11:55 PM,-9999,-9999,N/A,30.07,10.0,Calm,Calm,-,N/A,,Clear,0,2013-08-03 03:55:00